Hourly Data Report for December 07, 2019

All times are specified in Local Standard Time (LST). Add 1 hour to adjust for Daylight Saving Time where and when it is observed.

CHESTERFIELD INLET A
NUNAVUT
Current Station Operator: NAVCAN

63°20'50.000" N
90°43'52.000" W
9.80 m
2300710
YCS

Download Data

Hourly Data (December 2019)
Hourly Data Report for December 7, 2019
TIME Temp Definition
°C
Dew Point Definition
°C
Rel Hum Definition
%
Wind Dir Definition
10's deg

Wind Spd Definition
km/h
Visibility Definition
km
Stn Press Definition
kPa
Hmdx Definition


Wind Chill Definition


Weather Definition


00:00 -34.2 -38.3 68 29 19 LegendMM 100.44   -48 LegendNANA
01:00 -34.2 -38.3 68 29 26 LegendMM 100.41   -50 LegendNANA
02:00 -34.5 -38.5 67 30 19 LegendMM 100.42   -48 LegendNANA
03:00 -34.9 -39.0 67 28 21 LegendMM 100.42   -50 LegendNANA
04:00 -35.0 -39.2 67 30 13 LegendMM 100.41   -47 LegendNANA
05:00 -34.3 -38.3 68 30 19 LegendMM 100.37   -48 LegendNANA
06:00 -34.7 -38.7 68 29 17 LegendMM 100.33   -48 LegendNANA
07:00 -34.7 -38.8 68 29 20 LegendMM 100.31   -49 LegendNANA
08:00 -35.2 -39.4 66 30 18 LegendMM 100.32   -49 LegendNANA
09:00 -34.9 -39.0 67 29 19 LegendMM 100.31   -49 LegendNANA
10:00 -34.9 -39.1 67 29 18 LegendMM 100.31   -49 LegendNANA
11:00 -34.1 -38.1 68 30 19 LegendMM 100.29   -48 LegendNANA
12:00 -33.9 -38.0 68 29 21 LegendMM 100.29   -48 LegendNANA
13:00 -34.0 -38.1 67 30 22 LegendMM 100.28   -49 LegendNANA
14:00 -34.3 -38.4 67 31 21 LegendMM 100.30   -49 LegendNANA
15:00 -34.5 -38.6 67 30 22 LegendMM 100.32   -49 LegendNANA
16:00 -34.5 -38.6 68 30 21 LegendMM 100.33   -49 LegendNANA
17:00 -34.6 -38.7 67 30 21 LegendMM 100.35   -49 LegendNANA
18:00 -34.0 -38.0 68 30 25 LegendMM 100.35   -50 LegendNANA
19:00 -33.7 -37.6 68 30 24 LegendMM 100.36   -49 LegendNANA
20:00 -33.3 -37.3 68 29 25 LegendMM 100.37   -49 LegendNANA
21:00 -32.8 -36.7 69 30 26 LegendMM 100.37   -48 LegendNANA
22:00 -33.0 -36.9 68 29 25 LegendMM 100.39   -48 LegendNANA
23:00 -32.8 -36.7 69 30 26 LegendMM 100.40   -48 LegendNANA

Notes on Data Quality.

Legend

  • E = Estimated
  • M = Missing
  • NA = Not Available
Date modified: